CW2352 Weather Reports


time (UTC)temp
C
wind
direction
speed
KPH
gust
KPH
rain 1hr
cm
rain 24hr
cm
rain mn
cm
humidity
%
barometer
mb
20260510011703 11 184 3.2 9.7 0.00 0.03 0.03 91 1011.3
20260510011203 11 176 4.8 9.7 0.00 0.03 0.03 91 1011.3
20260510010704 11 195 4.8 12.9 0.00 0.03 0.03 92 1011.5
20260510010203 11 201 3.2 8.0 0.00 0.03 0.03 91 1011.3
20260510005703 11 186 4.8 9.7 0.00 0.03 0.03 92 1011.3
20260510005203 10 198 3.2 4.8 0.00 0.03 0.03 94 1011.1
20260510004703 10 169 3.2 4.8 0.00 0.03 0.03 93 1011.2
20260510004203 11 203 3.2 3.2 0.00 0.03 0.03 93 1011.5
20260510003704 11 205 1.6 9.7 0.00 0.03 0.03 91 1011.1
20260510003204 11 191 3.2 4.8 0.00 0.03 0.03 92 1011.1
20260510002703 11 169 1.6 4.8 0.00 0.03 0.03 90 1011.1
20260510002203 11 197 3.2 8.0 0.00 0.03 0.03 89 1011.0
20260510001203 11 199 3.2 4.8 0.00 0.03 0.03 90 1011.1
20260510000704 11 190 3.2 4.8 0.00 0.03 0.03 89 1011.1
20260510000204 12 223 3.2 4.8 0.00 0.03 0.03 87 1011.1
20260509235703 12 212 4.8 8.0 0.00 0.03 0.03 85 1010.9
20260509235203 12 197 4.8 8.0 0.00 0.03 0.03 84 1011.1
20260509234703 13 194 4.8 9.7 0.00 0.03 0.03 84 1010.8
20260509234203 13 184 4.8 11.3 0.00 0.03 0.03 82 1010.8
20260509233704 13 198 8.0 11.3 0.00 0.03 0.03 81 1011.1
20260509232204 13 197 6.4 11.3 0.00 0.03 0.03 80 1011.1
20260509231204 14 199 6.4 16.1 0.00 0.03 0.03 79 1011.1
20260509230703 14 179 11.3 22.5 0.00 0.03 0.03 79 1011.1
20260509230203 14 172 8.0 22.5 0.00 0.03 0.03 79 1011.1
20260509225703 13 198 8.0 12.9 0.00 0.03 0.03 81 1011.1
20260509225203 13 190 8.0 14.5 0.00 0.03 0.03 80 1011.1
20260509224703 13 204 9.7 19.3 0.00 0.03 0.03 80 1011.1
20260509224204 13 181 6.4 11.3 0.00 0.03 0.03 80 1011.1
20260509223704 13 210 4.8 14.5 0.00 0.03 0.03 80 1011.1
20260509223204 13 194 6.4 16.1 0.00 0.03 0.03 79 1011.1
20260509222704 13 193 8.0 16.1 0.00 0.03 0.03 80 1011.1
20260509222204 13 199 9.7 16.1 0.00 0.03 0.03 79 1011.1
20260509221704 13 201 8.0 19.3 0.00 0.03 0.03 79 1011.1
20260509221204 13 199 9.7 22.5 0.00 0.03 0.03 79 1011.1
20260509220703 14 195 9.7 20.9 0.00 0.03 0.03 78 1011.1
20260509215702 14 191 11.3 19.3 0.00 0.03 0.03 78 1011.1
20260509215202 14 189 11.3 16.1 0.00 0.03 0.03 77 1011.1
20260509214703 14 194 14.5 24.1 0.00 0.03 0.03 77 1011.5
20260509214203 15 207 8.0 19.3 0.00 0.03 0.03 75 1011.1
20260509213703 15 229 11.3 24.1 0.00 0.03 0.03 75 1011.1
20260509213202 15 196 14.5 22.5 0.00 0.03 0.03 75 1011.1
20260509212702 15 211 12.9 32.2 0.00 0.03 0.03 74 1011.1
20260509212202 15 193 14.5 32.2 0.00 0.03 0.03 75 1011.1
20260509211703 15 189 9.7 25.7 0.00 0.03 0.03 75 1011.5
20260509211202 15 184 16.1 27.4 0.00 0.03 0.03 76 1011.3
20260509210703 15 186 9.7 22.5 0.00 0.03 0.03 78 1011.3
20260509210202 14 198 11.3 19.3 0.00 0.03 0.03 79 1011.5
20260509205203 13 182 6.4 12.9 0.00 0.03 0.03 84 1011.5
20260509204703 13 167 4.8 11.3 0.00 0.03 0.03 85 1011.8
20260509204202 12 197 6.4 11.3 0.00 0.03 0.03 86 1012.0
20260509203703 12 133 3.2 9.7 0.00 0.03 0.03 86 1012.0
20260509203203 12 151 4.8 9.7 0.00 0.03 0.03 87 1012.2
20260509202703 12 171 4.8 9.7 0.00 0.03 0.03 87 1012.2
20260509202203 12 189 6.4 12.9 0.00 0.03 0.03 88 1012.2
20260509201702 12 205 3.2 8.0 0.00 0.03 0.03 88 1012.2
20260509201202 12 202 6.4 11.3 0.00 0.03 0.03 88 1012.2
20260509200703 11 185 4.8 9.7 0.00 0.03 0.03 89 1012.2
20260509200203 11 183 4.8 8.0 0.00 0.03 0.03 88 1012.2
20260509195702 11 153 4.8 8.0 0.00 0.03 0.03 89 1012.3
20260509195203 11 174 4.8 12.9 0.00 0.03 0.03 89 1012.4
20260509194703 11 170 4.8 9.7 0.00 0.03 0.03 89 1012.3
20260509194203 11 183 4.8 9.7 0.00 0.03 0.03 89 1012.5
20260509193703 11 184 4.8 9.7 0.00 0.03 0.03 89 1012.5
20260509193203 11 163 4.8 11.3 0.00 0.03 0.03 89 1012.8
20260509192703 11 173 6.4 11.3 0.00 0.03 0.03 89 1012.8
20260509192203 11 175 6.4 19.3 0.00 0.03 0.03 90 1012.8
20260509191703 11 198 8.0 14.5 0.00 0.03 0.03 89 1012.8
20260509191203 11 174 6.4 11.3 0.00 0.03 0.03 89 1012.8
20260509190702 11 165 6.4 12.9 0.00 0.03 0.03 90 1012.8
20260509185703 10 199 3.2 9.7 0.00 0.03 0.03 91 1013.2
20260509185203 10 200 4.8 9.7 0.00 0.03 0.03 92 1013.2
20260509184703 10 175 6.4 12.9 0.00 0.03 0.03 92 1013.2
20260509184203 10 161 4.8 12.9 0.00 0.03 0.03 92 1013.3
20260509183703 10 173 6.4 14.5 0.00 0.03 0.03 92 1013.4
20260509182703 10 180 6.4 11.3 0.00 0.03 0.03 91 1013.3
20260509182203 10 186 3.2 11.3 0.00 0.03 0.03 92 1013.3
20260509181703 10 184 8.0 11.3 0.00 0.03 0.03 92 1013.3
20260509181203 10 189 4.8 14.5 0.00 0.03 0.03 92 1013.2
20260509180703 10 170 6.4 14.5 0.00 0.03 0.03 92 1013.2
20260509180203 10 167 3.2 12.9 0.00 0.03 0.03 92 1013.3
20260509175203 10 168 4.8 9.7 0.00 0.03 0.03 92 1013.5
20260509174203 9 172 8.0 16.1 0.00 0.03 0.03 93 1013.5
20260509173703 9 168 8.0 22.5 0.00 0.03 0.03 92 1013.5
20260509173203 9 188 8.0 22.5 0.00 0.03 0.03 93 1013.7
20260509172703 9 175 9.7 16.1 0.00 0.03 0.03 94 1013.4
20260509172203 8 190 6.4 12.9 0.00 0.03 0.03 95 1013.5
20260509171703 8 169 6.4 14.5 0.00 0.03 0.03 95 1013.7
20260509171203 8 181 8.0 12.9 0.00 0.03 0.03 96 1013.9
20260509170703 8 177 4.8 11.3 0.00 0.03 0.03 96 1013.9
20260509165203 8 170 6.4 16.1 0.00 0.03 0.03 95 1013.9
20260509164203 8 175 9.7 19.3 0.00 0.03 0.03 94 1014.2
20260509163703 8 159 4.8 9.7 0.00 0.03 0.03 95 1014.2
20260509163203 8 178 4.8 8.0 0.00 0.03 0.03 95 1014.2
20260509162203 8 196 3.2 12.9 0.00 0.03 0.03 94 1014.4
20260509161703 8 160 4.8 12.9 0.00 0.03 0.03 94 1014.5
20260509161203 8 179 4.8 11.3 0.00 0.03 0.03 94 1014.5
20260509160703 8 140 1.6 12.9 0.00 0.03 0.03 94 1014.3
20260509160204 8 165 4.8 12.9 0.00 0.03 0.03 95 1014.5
20260509155703 8 142 4.8 16.1 0.00 0.03 0.03 95 1014.5
20260509155203 8 141 6.4 14.5 0.00 0.03 0.03 95 1014.7
20260509154703 8 184 8.0 19.3 0.00 0.03 0.03 95 1014.7
20260509154203 8 186 8.0 14.5 0.00 0.03 0.03 94 1014.7
20260509153203 8 143 8.0 19.3 0.00 0.05 0.03 94 1015.1
20260509152704 8 177 8.0 11.3 0.00 0.08 0.03 94 1015.1
20260509152204 8 158 4.8 9.7 0.00 0.10 0.03 94 1015.2
20260509151203 8 178 8.0 16.1 0.03 0.10 0.03 93 1015.2
20260509150703 8 192 3.2 9.7 0.03 0.10 0.03 94 1015.2
20260509150203 8 90 8.0 16.1 0.03 0.10 0.03 94 1015.4
20260509145704 8 175 8.0 19.3 0.03 0.10 0.03 94 1015.2
20260509145204 8 174 4.8 12.9 0.03 0.10 0.03 95 1015.2
20260509144704 8 174 6.4 14.5 0.03 0.10 0.03 94 1015.2
20260509144204 8 151 4.8 8.0 0.03 0.10 0.03 94 1015.4
20260509143704 8 179 4.8 9.7 0.03 0.10 0.03 93 1015.6
20260509143203 8 186 3.2 9.7 0.03 0.10 0.03 94 1015.4
20260509142703 7 205 3.2 9.7 0.03 0.10 0.03 94 1015.4
20260509141704 7 130 4.8 9.7 0.03 0.10 0.03 95 1015.2
20260509141203 7 194 4.8 12.9 0.00 0.08 0.00 94 1015.4
20260509140703 7 165 6.4 19.3 0.00 0.08 0.00 94 1015.2
20260509140203 7 179 4.8 9.7 0.00 0.08 0.00 93 1015.2
20260509135703 7 168 3.2 9.7 0.00 0.08 0.00 93 1015.6
20260509135204 7 190 4.8 11.3 0.00 0.08 0.00 93 1015.6
20260509134703 7 185 3.2 11.3 0.00 0.08 0.00 93 1015.6
20260509134203 6 95 4.8 11.3 0.00 0.08 0.00 91 1015.6
20260509133704 6 168 3.2 9.7 0.00 0.08 0.00 91 1015.6
20260509133203 6 136 3.2 8.0 0.00 0.08 0.00 91 1015.8
20260509132703 6 156 3.2 11.3 0.00 0.08 0.00 90 1015.6
20260509132203 6 187 8.0 12.9 0.00 0.08 0.00 89 1015.6
20260509131704 6 96 4.8 12.9 0.00 0.08 0.00 88 1015.6
20260509131203 6 188 9.7 12.9 0.00 0.08 0.00 86 1015.6
20260509130202 6 181 3.2 14.5 0.00 0.08 0.00 84 1015.8
20260509125702 6 161 4.8 16.1 0.00 0.08 0.00 83 1015.6
20260509125203 6 196 6.4 12.9 0.00 0.08 0.00 82 1015.6
20260509124702 6 187 6.4 14.5 0.00 0.08 0.00 81 1015.6
20260509124202 6 203 3.2 9.7 0.00 0.08 0.00 81 1015.6
20260509123702 6 199 3.2 9.7 0.00 0.08 0.00 81 1015.6
20260509123202 6 192 4.8 11.3 0.00 0.08 0.00 80 1015.6
20260509122702 6 185 8.0 12.9 0.00 0.08 0.00 79 1015.6
20260509121203 6 166 8.0 16.1 0.00 0.08 0.00 77 1015.9
20260509120703 6 165 8.0 14.5 0.00 0.08 0.00 77 1016.0
20260509120202 6 166 6.4 16.1 0.00 0.08 0.00 77 1016.0
20260509115703 6 169 8.0 16.1 0.00 0.08 0.00 77 1016.2
20260509115202 6 180 4.8 14.5 0.00 0.08 0.00 76 1016.2
20260509114702 6 168 11.3 19.3 0.00 0.08 0.00 75 1016.1
20260509114202 6 185 4.8 14.5 0.00 0.08 0.00 76 1015.9
20260509113703 6 193 4.8 14.5 0.00 0.08 0.00 76 1016.0
20260509113203 6 171 6.4 12.9 0.00 0.08 0.00 74 1015.7
20260509112203 6 184 8.0 12.9 0.00 0.08 0.00 75 1015.9
20260509111703 6 173 6.4 16.1 0.00 0.08 0.00 74 1016.1
20260509111203 6 156 8.0 14.5 0.00 0.08 0.00 75 1016.0
20260509110703 6 163 8.0 16.1 0.00 0.08 0.00 75 1016.0
20260509110202 6 192 8.0 16.1 0.00 0.08 0.00 75 1015.8
20260509105702 6 193 4.8 16.1 0.00 0.08 0.08 76 1015.9
20260509104203 5 167 4.8 9.7 0.00 0.08 0.08 77 1015.9
20260509103702 5 205 4.8 14.5 0.00 0.08 0.08 77 1016.0
20260509103203 5 192 6.4 11.3 0.00 0.08 0.08 76 1015.9
20260509102703 5 193 6.4 12.9 0.00 0.08 0.08 76 1015.9
20260509102203 5 184 4.8 11.3 0.00 0.08 0.08 76 1015.9
20260509101703 5 146 6.4 12.9 0.00 0.08 0.08 76 1015.9
20260509101202 5 177 8.0 16.1 0.00 0.08 0.08 75 1015.9
20260509100703 5 180 9.7 19.3 0.00 0.08 0.08 75 1015.9
20260509100203 5 196 8.0 14.5 0.00 0.08 0.08 75 1015.9
20260509095702 5 189 8.0 16.1 0.00 0.08 0.08 75 1015.6
20260509095203 5 190 4.8 19.3 0.00 0.08 0.08 76 1015.6
20260509094703 5 182 8.0 19.3 0.00 0.08 0.08 76 1015.6
20260509094203 5 175 6.4 20.9 0.00 0.08 0.08 76 1015.6
20260509093703 5 179 9.7 16.1 0.00 0.08 0.08 75 1015.6
20260509093203 5 196 4.8 16.1 0.00 0.08 0.08 75 1015.6
20260509091703 5 179 3.2 11.3 0.00 0.08 0.08 77 1015.9
20260509091203 5 170 6.4 9.7 0.00 0.08 0.08 76 1015.9
20260509090703 5 204 6.4 11.3 0.00 0.08 0.08 75 1016.2
20260509090203 5 183 8.0 12.9 0.00 0.08 0.08 75 1016.2
20260509085203 4 197 3.2 9.7 0.00 0.08 0.08 78 1016.1
20260509084703 4 199 4.8 9.7 0.00 0.08 0.08 78 1016.1
20260509084203 4 200 6.4 11.3 0.00 0.08 0.08 79 1016.2
20260509083703 4 189 6.4 11.3 0.00 0.08 0.08 79 1016.2
20260509083203 4 188 8.0 11.3 0.00 0.08 0.08 81 1016.2
20260509082703 3 203 4.8 9.7 0.00 0.08 0.08 84 1015.9
20260509082203 3 200 4.8 8.0 0.00 0.08 0.08 85 1016.2
20260509081703 3 201 3.2 9.7 0.00 0.08 0.08 85 1016.2
20260509081204 3 198 3.2 8.0 0.00 0.08 0.08 84 1016.2
20260509080203 3 199 4.8 8.0 0.00 0.08 0.08 83 1016.2
20260509075203 3 196 4.8 9.7 0.00 0.08 0.08 83 1016.2
20260509074703 3 200 4.8 8.0 0.00 0.08 0.08 84 1016.2
20260509074203 3 175 3.2 8.0 0.00 0.10 0.08 84 1016.2
20260509073703 3 197 4.8 11.3 0.00 0.13 0.08 83 1016.2
20260509073203 3 200 3.2 9.7 0.00 0.15 0.08 84 1016.2
20260509072703 3 199 4.8 9.7 0.00 0.15 0.08 84 1015.9
20260509072203 3 203 3.2 9.7 0.00 0.18 0.08 83 1015.9
20260509071203 3 212 3.2 4.8 0.00 0.18 0.08 87 1016.1
20260509070704 2 199 3.2 4.8 0.00 0.18 0.08 89 1016.2
20260509070203 2 181 3.2 4.8 0.00 0.18 0.08 95 1016.0
20260509065703 2 181 1.6 4.8 0.00 0.18 0.08 96 1016.2
20260509065204 2 214 1.6 4.8 0.00 0.18 0.08 97 1016.2
20260509064703 2 187 3.2 4.8 0.00 0.18 0.08 97 1016.2
20260509064204 2 219 1.6 3.2 0.00 0.18 0.08 96 1016.4
20260509063703 2 215 3.2 4.8 0.00 0.18 0.08 95 1016.6
20260509063204 2 210 3.2 4.8 0.00 0.18 0.08 98 1016.4
20260509062703 1 217 1.6 3.2 0.00 0.18 0.08 99 1016.2
20260509061704 2 215 1.6 3.2 0.00 0.18 0.08 99 1016.6
20260509060704 2 206 3.2 8.0 0.00 0.18 0.08 99 1016.6
20260509060204 2 228 1.6 3.2 0.00 0.18 0.08 99 1016.6
20260509055703 1 188 0.0 1.6 0.00 0.18 0.08 99 1016.6
20260509055203 2 194 0.0 1.6 0.00 0.18 0.08 99 1016.8
20260509054703 2 200 1.6 3.2 0.00 0.18 0.08 99 1016.9
20260509054204 2 213 1.6 3.2 0.00 0.18 0.08 99 1016.9
20260509053703 2 224 0.0 3.2 0.00 0.18 0.08 99 1017.0
20260509053203 2 199 1.6 4.8 0.00 0.18 0.08 99 1016.9
20260509052704 2 217 3.2 3.2 0.00 0.18 0.08 99 1016.9
20260509052203 2 83 0.0 1.6 0.00 0.18 0.08 99 1017.0
20260509051704 2 107 0.0 1.6 0.00 0.18 0.08 99 1017.0
20260509051203 2 232 0.0 3.2 0.00 0.18 0.08 99 1017.2
20260509050703 2 210 0.0 1.6 0.00 0.18 0.08 99 1017.1
20260509050204 2 309 0.0 1.6 0.00 0.18 0.08 99 1017.2
20260509045703 2 279 0.0 3.2 0.00 0.18 0.08 99 1016.9
20260509045204 2 260 1.6 3.2 0.00 0.18 0.08 99 1017.2
20260509044204 2 188 3.2 3.2 0.00 0.18 0.08 99 1017.2
20260509043203 2 217 1.6 3.2 0.00 0.18 0.08 98 1017.2
20260509042704 2 218 1.6 1.6 0.00 0.18 0.08 98 1017.1
20260509041204 2 176 1.6 3.2 0.00 0.18 0.08 97 1017.2
20260509040704 2 191 1.6 3.2 0.00 0.18 0.08 97 1017.0
20260509040203 2 199 1.6 3.2 0.00 0.18 0.08 97 1017.0
20260509035703 2 199 3.2 3.2 0.00 0.18 0.08 97 1017.2
20260509035203 2 201 1.6 3.2 0.00 0.18 0.08 97 1017.2
20260509034702 2 221 1.6 3.2 0.00 0.18 0.08 97 1016.9
20260509033703 2 191 3.2 4.8 0.00 0.18 0.08 96 1016.9
20260509033202 2 217 1.6 4.8 0.00 0.18 0.08 96 1016.9
20260509032202 2 193 4.8 8.0 0.00 0.18 0.08 96 1016.9
20260509031203 2 209 3.2 3.2 0.00 0.18 0.08 96 1016.9
20260509030702 2 203 3.2 4.8 0.00 0.18 0.08 96 1017.1
20260509030203 2 211 1.6 4.8 0.00 0.18 0.08 96 1017.1
20260509025703 2 197 3.2 4.8 0.00 0.18 0.08 96 1017.0
20260509025203 2 190 4.8 8.0 0.00 0.18 0.08 96 1017.1
20260509024703 2 191 3.2 4.8 0.00 0.18 0.08 96 1016.9
20260509024202 2 191 3.2 4.8 0.00 0.18 0.08 95 1017.0
20260509023702 2 190 3.2 4.8 0.00 0.18 0.08 95 1017.0
20260509023202 2 191 1.6 3.2 0.00 0.18 0.08 94 1017.2
20260509022703 3 190 3.2 4.8 0.00 0.18 0.08 94 1017.2
20260509022203 3 192 3.2 4.8 0.00 0.18 0.08 93 1016.9
20260509021703 3 187 3.2 4.8 0.00 0.18 0.08 93 1016.9
20260509020703 3 212 3.2 4.8 0.00 0.18 0.08 91 1017.2
20260509015702 3 194 3.2 4.8 0.00 0.18 0.08 92 1016.9
20260509015203 3 190 3.2 4.8 0.00 0.18 0.08 92 1016.9
20260509014202 3 191 3.2 3.2 0.00 0.18 0.08 91 1016.8
20260509013703 3 196 1.6 4.8 0.00 0.18 0.08 90 1016.6
20260509013203 3 198 3.2 4.8 0.00 0.18 0.08 89 1016.4
20260509012703 4 193 3.2 4.8 0.00 0.18 0.08 89 1016.6
20260509012203 4 199 3.2 3.2 0.00 0.18 0.08 88 1016.2